Time,TemperatureF,DewpointF,PressureIn,WindDirection,WindDirectionDegrees,WindSpeedMPH,WindSpeedGustMPH,Humidity,HourlyPrecipIn,Conditions,Clouds,dailyrainin,SoftwareType,DateUTC
2013-07-27 00:02:00,55.0,48.7,30.12,ESE,114,0.0,0.0,79,0.00,,---,0.00,VWS V13.00,2013-07-27 08:02:00,
2013-07-27 00:07:00,54.9,48.8,30.12,ESE,118,0.0,0.0,80,0.00,,---,0.00,VWS V13.00,2013-07-27 08:07:00,
2013-07-27 00:12:00,54.9,48.8,30.12,East,81,0.0,0.0,80,0.00,,---,0.00,VWS V13.00,2013-07-27 08:12:00,
2013-07-27 00:17:00,54.9,48.8,30.12,East,81,0.0,0.0,80,0.00,,---,0.00,VWS V13.00,2013-07-27 08:17:00,
2013-07-27 00:22:00,55.0,49.0,30.12,East,81,0.0,0.0,80,0.00,,---,0.00,VWS V13.00,2013-07-27 08:22:00,
2013-07-27 00:27:00,55.0,49.0,30.12,East,81,0.0,0.0,80,0.00,,---,0.00,VWS V13.00,2013-07-27 08:27:00,
2013-07-27 00:32:00,55.0,49.0,30.12,East,81,0.0,0.0,80,0.00,,---,0.00,VWS V13.00,2013-07-27 08:32:00,
2013-07-27 00:37:00,55.0,49.0,30.12,East,81,0.0,0.0,80,0.00,,---,0.00,VWS V13.00,2013-07-27 08:37:00,
2013-07-27 00:42:00,55.0,49.0,30.12,East,81,0.0,0.0,80,0.00,,---,0.00,VWS V13.00,2013-07-27 08:42:00,
2013-07-27 00:47:00,55.2,49.2,30.12,East,81,0.0,0.0,80,0.00,,---,0.00,VWS V13.00,2013-07-27 08:47:00,
2013-07-27 00:52:00,55.2,49.2,30.12,East,81,0.0,0.0,80,0.00,,---,0.00,VWS V13.00,2013-07-27 08:52:00,
2013-07-27 00:57:00,55.4,49.3,30.12,East,81,0.0,0.0,80,0.00,,---,0.00,VWS V13.00,2013-07-27 08:57:00,
2013-07-27 01:02:00,55.4,49.3,30.12,East,81,0.0,0.0,80,0.00,,---,0.00,VWS V13.00,2013-07-27 09:02:00,
2013-07-27 01:07:00,55.4,49.3,30.12,East,81,0.0,0.0,80,0.00,,---,0.00,VWS V13.00,2013-07-27 09:07:00,
2013-07-27 01:12:00,55.4,49.3,30.12,East,81,0.0,0.0,80,0.00,,---,0.00,VWS V13.00,2013-07-27 09:12:00,
2013-07-27 01:17:00,55.4,49.3,30.12,East,81,0.0,0.0,80,0.00,,---,0.00,VWS V13.00,2013-07-27 09:17:00,
2013-07-27 01:22:00,55.6,49.5,30.12,East,81,0.0,0.0,80,0.00,,---,0.00,VWS V13.00,2013-07-27 09:22:00,
2013-07-27 01:27:00,55.6,49.5,30.12,East,81,0.0,0.0,80,0.00,,---,0.00,VWS V13.00,2013-07-27 09:27:00,
2013-07-27 01:32:00,55.6,49.5,30.12,East,81,0.0,0.0,80,0.00,,---,0.00,VWS V13.00,2013-07-27 09:32:00,
2013-07-27 01:37:00,55.6,49.5,30.12,East,81,0.0,0.0,80,0.00,,---,0.00,VWS V13.00,2013-07-27 09:37:00,
2013-07-27 01:42:00,55.6,49.5,30.12,East,81,0.0,0.0,80,0.00,,---,0.00,VWS V13.00,2013-07-27 09:42:00,
2013-07-27 01:47:00,55.6,49.5,30.12,East,81,0.0,0.0,80,0.00,,---,0.00,VWS V13.00,2013-07-27 09:47:00,
2013-07-27 01:52:00,55.8,49.7,30.12,East,81,0.0,0.0,80,0.00,,---,0.00,VWS V13.00,2013-07-27 09:52:00,
2013-07-27 01:57:00,55.8,49.7,30.12,East,81,0.0,0.0,80,0.00,,---,0.00,VWS V13.00,2013-07-27 09:57:00,
2013-07-27 02:02:00,55.8,49.7,30.12,East,81,0.0,0.0,80,0.00,,---,0.00,VWS V13.00,2013-07-27 10:02:00,
2013-07-27 02:07:00,55.8,49.7,30.12,East,81,0.0,0.0,80,0.00,,---,0.00,VWS V13.00,2013-07-27 10:07:00,
2013-07-27 02:12:00,55.8,49.7,30.12,East,81,0.0,0.0,80,0.00,,---,0.00,VWS V13.00,2013-07-27 10:12:00,
2013-07-27 02:17:00,55.8,49.7,30.12,East,81,0.0,0.0,80,0.00,,---,0.00,VWS V13.00,2013-07-27 10:17:00,
2013-07-27 02:22:00,55.8,49.7,30.12,East,81,0.0,0.0,80,0.00,,---,0.00,VWS V13.00,2013-07-27 10:22:00,
2013-07-27 02:27:00,55.8,49.7,30.12,East,81,0.0,0.0,80,0.00,,---,0.00,VWS V13.00,2013-07-27 10:27:00,
2013-07-27 02:32:00,55.8,49.7,30.12,East,81,0.0,0.0,80,0.00,,---,0.00,VWS V13.00,2013-07-27 10:32:00,
2013-07-27 02:37:00,55.8,49.7,30.12,East,81,0.0,0.0,80,0.00,,---,0.00,VWS V13.00,2013-07-27 10:37:00,
2013-07-27 02:42:00,55.8,49.7,30.12,East,81,0.0,0.0,80,0.00,,---,0.00,VWS V13.00,2013-07-27 10:42:00,
2013-07-27 02:47:00,55.8,49.7,30.12,East,81,0.0,0.0,80,0.00,,---,0.00,VWS V13.00,2013-07-27 10:47:00,
2013-07-27 02:52:00,55.8,49.7,30.12,SW,218,0.0,0.0,80,0.00,,---,0.00,VWS V13.00,2013-07-27 10:52:00,
2013-07-27 02:57:00,55.6,49.2,30.12,SW,215,0.0,0.0,79,0.00,,---,0.00,VWS V13.00,2013-07-27 10:57:00,
2013-07-27 03:02:00,55.6,49.2,30.12,SSW,212,0.0,0.0,79,0.00,,---,0.00,VWS V13.00,2013-07-27 11:02:00,
2013-07-27 03:07:00,55.4,49.0,30.12,SSW,198,0.0,0.0,79,0.00,,---,0.00,VWS V13.00,2013-07-27 11:07:00,
2013-07-27 03:12:00,55.4,49.0,30.12,SSW,198,0.0,0.0,79,0.00,,---,0.00,VWS V13.00,2013-07-27 11:12:00,
2013-07-27 03:17:00,55.4,49.0,30.12,SSW,198,0.0,0.0,79,0.00,,---,0.00,VWS V13.00,2013-07-27 11:17:00,
2013-07-27 03:22:00,55.4,49.0,30.12,SSW,198,0.0,0.0,79,0.00,,---,0.00,VWS V13.00,2013-07-27 11:22:00,
2013-07-27 03:27:00,55.4,49.0,30.12,SSW,198,0.0,0.0,79,0.00,,---,0.00,VWS V13.00,2013-07-27 11:27:00,
2013-07-27 03:32:00,55.4,49.0,30.12,SSW,198,0.0,0.0,79,0.00,,---,0.00,VWS V13.00,2013-07-27 11:32:00,
2013-07-27 03:37:00,55.4,49.0,30.12,SSW,198,0.0,0.0,79,0.00,,---,0.00,VWS V13.00,2013-07-27 11:37:00,
2013-07-27 03:42:00,55.4,49.0,30.12,SSW,198,0.0,0.0,79,0.00,,---,0.00,VWS V13.00,2013-07-27 11:42:00,
2013-07-27 03:47:00,55.4,49.3,30.12,SSW,198,0.0,0.0,80,0.00,,---,0.00,VWS V13.00,2013-07-27 11:47:00,
2013-07-27 03:52:00,55.4,49.3,30.12,SSW,198,0.0,0.0,80,0.00,,---,0.00,VWS V13.00,2013-07-27 11:52:00,
2013-07-27 03:57:00,55.4,49.3,30.12,SSW,198,0.0,0.0,80,0.00,,---,0.00,VWS V13.00,2013-07-27 11:57:00,
2013-07-27 04:02:00,55.4,49.3,30.12,SSW,198,0.0,0.0,80,0.00,,---,0.00,VWS V13.00,2013-07-27 12:02:00,
2013-07-27 04:07:00,55.4,49.3,30.12,SSW,198,0.0,0.0,80,0.00,,---,0.00,VWS V13.00,2013-07-27 12:07:00,
2013-07-27 04:12:00,55.4,49.3,30.12,SSW,198,0.0,0.0,80,0.00,,---,0.00,VWS V13.00,2013-07-27 12:12:00,
2013-07-27 04:17:00,55.4,49.3,30.12,SSW,198,0.0,0.0,80,0.00,,---,0.00,VWS V13.00,2013-07-27 12:17:00,
2013-07-27 04:22:00,55.4,49.3,30.12,SSW,198,0.0,0.0,80,0.00,,---,0.00,VWS V13.00,2013-07-27 12:22:00,
2013-07-27 04:27:00,55.4,49.3,30.12,SSW,198,0.0,0.0,80,0.00,,---,0.00,VWS V13.00,2013-07-27 12:27:00,
2013-07-27 04:32:00,55.4,49.3,30.12,SSW,198,0.0,0.0,80,0.00,,---,0.00,VWS V13.00,2013-07-27 12:32:00,
2013-07-27 04:37:00,55.4,49.3,30.12,SSW,198,0.0,0.0,80,0.00,,---,0.00,VWS V13.00,2013-07-27 12:37:00,
2013-07-27 04:42:00,55.4,49.3,30.12,SSW,198,0.0,0.0,80,0.00,,---,0.00,VWS V13.00,2013-07-27 12:42:00,
2013-07-27 04:47:00,55.4,49.3,30.12,SSW,198,0.0,0.0,80,0.00,,---,0.00,VWS V13.00,2013-07-27 12:47:00,
2013-07-27 04:52:00,55.6,49.5,30.12,SSW,198,0.0,0.0,80,0.00,,---,0.00,VWS V13.00,2013-07-27 12:52:00,
2013-07-27 04:57:00,55.6,49.5,30.12,SSW,198,0.0,0.0,80,0.00,,---,0.00,VWS V13.00,2013-07-27 12:57:00,
2013-07-27 05:02:00,55.6,49.5,30.12,SSW,198,0.0,0.0,80,0.00,,---,0.00,VWS V13.00,2013-07-27 13:02:00,
2013-07-27 05:07:00,55.6,49.5,30.12,SSW,198,0.0,0.0,80,0.00,,---,0.00,VWS V13.00,2013-07-27 13:07:00,
2013-07-27 05:13:00,55.6,49.5,30.12,SSW,198,0.0,0.0,80,0.00,,---,0.00,VWS V13.00,2013-07-27 13:13:00,
2013-07-27 05:18:00,55.6,49.5,30.12,SSW,198,0.0,0.0,80,0.00,,---,0.00,VWS V13.00,2013-07-27 13:18:00,
2013-07-27 05:23:00,55.6,49.5,30.12,SSW,198,0.0,0.0,80,0.00,,---,0.00,VWS V13.00,2013-07-27 13:23:00,
2013-07-27 05:28:00,55.6,49.5,30.12,SSW,198,0.0,0.0,80,0.00,,---,0.00,VWS V13.00,2013-07-27 13:28:00,
2013-07-27 05:33:00,55.8,49.7,30.12,SSW,198,0.0,0.0,80,0.00,,---,0.00,VWS V13.00,2013-07-27 13:33:00,
2013-07-27 05:38:00,55.8,49.7,30.12,SW,222,0.0,0.0,80,0.00,,---,0.00,VWS V13.00,2013-07-27 13:38:00,
2013-07-27 05:42:00,55.6,49.5,30.12,SW,222,0.0,0.0,80,0.00,,---,0.00,VWS V13.00,2013-07-27 13:42:00,
2013-07-27 05:48:00,55.6,49.5,30.12,SSW,210,0.0,0.0,80,0.00,,---,0.00,VWS V13.00,2013-07-27 13:48:00,
2013-07-27 05:52:00,55.6,49.5,30.12,SSW,203,0.0,0.0,80,0.00,,---,0.00,VWS V13.00,2013-07-27 13:52:00,
2013-07-27 05:57:00,55.4,49.3,30.12,SW,214,0.0,0.0,80,0.00,,---,0.00,VWS V13.00,2013-07-27 13:57:00,
2013-07-27 06:02:00,55.4,49.3,30.12,SW,214,0.0,0.0,80,0.00,,---,0.00,VWS V13.00,2013-07-27 14:02:00,
2013-07-27 06:07:00,55.4,49.3,30.12,SW,214,0.0,0.0,80,0.00,,---,0.00,VWS V13.00,2013-07-27 14:07:00,
2013-07-27 06:12:00,55.4,49.3,30.12,SE,126,0.0,0.0,80,0.00,,---,0.00,VWS V13.00,2013-07-27 14:12:00,
2013-07-27 06:17:00,55.4,49.3,30.12,East,96,0.0,0.0,80,0.00,,---,0.00,VWS V13.00,2013-07-27 14:17:00,
2013-07-27 06:22:00,55.2,49.2,30.12,East,96,0.0,0.0,80,0.00,,---,0.00,VWS V13.00,2013-07-27 14:22:00,
2013-07-27 06:27:00,55.0,49.0,30.12,East,96,0.0,0.0,80,0.00,,---,0.00,VWS V13.00,2013-07-27 14:27:00,
2013-07-27 06:32:00,55.0,49.0,30.12,East,96,0.0,0.0,80,0.00,,---,0.00,VWS V13.00,2013-07-27 14:32:00,
2013-07-27 06:37:00,55.0,49.0,30.12,East,96,0.0,0.0,80,0.00,,---,0.00,VWS V13.00,2013-07-27 14:37:00,
2013-07-27 06:42:00,54.9,48.8,30.12,East,96,0.0,0.0,80,0.00,,---,0.00,VWS V13.00,2013-07-27 14:42:00,
2013-07-27 06:47:00,55.0,49.0,30.12,East,96,0.0,0.0,80,0.00,,---,0.00,VWS V13.00,2013-07-27 14:47:00,
2013-07-27 06:52:00,55.0,49.0,30.12,East,96,0.0,0.0,80,0.00,,---,0.00,VWS V13.00,2013-07-27 14:52:00,
2013-07-27 06:57:00,55.0,49.3,30.12,East,96,0.0,0.0,81,0.00,,---,0.00,VWS V13.00,2013-07-27 14:57:00,
2013-07-27 07:02:00,55.0,49.3,30.12,East,96,0.0,0.0,81,0.00,,---,0.00,VWS V13.00,2013-07-27 15:02:00,
2013-07-27 07:07:00,55.0,49.3,30.12,East,96,0.0,0.0,81,0.00,,---,0.00,VWS V13.00,2013-07-27 15:07:00,
2013-07-27 07:12:00,55.2,49.5,30.12,East,96,0.0,0.0,81,0.00,,---,0.00,VWS V13.00,2013-07-27 15:12:00,
2013-07-27 07:17:00,55.2,49.5,30.15,East,96,0.0,0.0,81,0.00,,---,0.00,VWS V13.00,2013-07-27 15:17:00,
2013-07-27 07:22:00,55.0,49.3,30.15,East,96,0.0,0.0,81,0.00,,---,0.00,VWS V13.00,2013-07-27 15:22:00,
2013-07-27 07:27:00,55.0,49.3,30.15,East,96,0.0,0.0,81,0.00,,---,0.00,VWS V13.00,2013-07-27 15:27:00,
2013-07-27 07:32:00,55.0,49.3,30.15,East,96,0.0,0.0,81,0.00,,---,0.00,VWS V13.00,2013-07-27 15:32:00,
2013-07-27 07:37:00,55.0,49.3,30.15,East,96,0.0,0.0,81,0.00,,---,0.00,VWS V13.00,2013-07-27 15:37:00,
2013-07-27 07:42:00,55.0,49.3,30.15,East,96,0.0,0.0,81,0.00,,---,0.00,VWS V13.00,2013-07-27 15:42:00,
2013-07-27 07:47:00,55.2,49.5,30.15,East,96,0.0,0.0,81,0.00,,---,0.00,VWS V13.00,2013-07-27 15:47:00,
2013-07-27 07:52:00,55.2,49.5,30.15,East,96,0.0,0.0,81,0.00,,---,0.00,VWS V13.00,2013-07-27 15:52:00,
2013-07-27 07:57:00,55.2,49.5,30.15,East,96,0.0,0.0,81,0.00,,---,0.00,VWS V13.00,2013-07-27 15:57:00,
2013-07-27 08:02:00,55.2,49.5,30.15,East,96,0.0,0.0,81,0.00,,---,0.00,VWS V13.00,2013-07-27 16:02:00,
2013-07-27 08:07:00,55.2,49.8,30.15,East,96,0.0,0.0,82,0.00,,---,0.00,VWS V13.00,2013-07-27 16:07:00,
2013-07-27 08:12:00,55.4,49.7,30.15,SSE,159,0.0,0.0,81,0.00,,---,0.00,VWS V13.00,2013-07-27 16:12:00,
2013-07-27 08:17:00,55.4,49.7,30.15,SSE,159,0.0,0.0,81,0.00,,---,0.00,VWS V13.00,2013-07-27 16:17:00,
2013-07-27 08:22:00,55.6,50.2,30.15,SSE,159,0.0,0.0,82,0.00,,---,0.00,VWS V13.00,2013-07-27 16:22:00,
2013-07-27 08:27:00,55.6,50.2,30.15,SSW,195,0.0,0.0,82,0.00,,---,0.00,VWS V13.00,2013-07-27 16:27:00,
2013-07-27 08:32:00,55.6,50.2,30.15,SSW,211,0.0,0.0,82,0.00,,---,0.00,VWS V13.00,2013-07-27 16:32:00,
2013-07-27 08:37:00,55.8,50.4,30.15,SW,220,0.0,0.0,82,0.00,,---,0.00,VWS V13.00,2013-07-27 16:37:00,
2013-07-27 08:42:00,55.8,50.4,30.15,West,265,0.0,0.0,82,0.00,,---,0.00,VWS V13.00,2013-07-27 16:42:00,
2013-07-27 08:47:00,55.8,50.4,30.15,WSW,244,0.0,0.0,82,0.00,,---,0.00,VWS V13.00,2013-07-27 16:47:00,
2013-07-27 08:52:00,55.8,50.4,30.15,WSW,254,0.0,0.0,82,0.00,,---,0.00,VWS V13.00,2013-07-27 16:52:00,
2013-07-27 08:57:00,55.9,50.5,30.15,WSW,241,0.0,0.0,82,0.00,,---,0.00,VWS V13.00,2013-07-27 16:57:00,
2013-07-27 09:03:00,55.9,50.5,30.15,WSW,255,0.0,0.0,82,0.00,,---,0.00,VWS V13.00,2013-07-27 17:03:00,
2013-07-27 09:08:00,55.9,50.5,30.15,SW,218,0.0,0.0,82,0.00,,---,0.00,VWS V13.00,2013-07-27 17:08:00,
2013-07-27 09:13:00,55.8,50.4,30.15,SW,234,0.0,0.0,82,0.00,,---,0.00,VWS V13.00,2013-07-27 17:13:00,
2013-07-27 09:18:00,55.8,50.4,30.15,SW,222,0.0,0.0,82,0.00,,---,0.00,VWS V13.00,2013-07-27 17:18:00,
2013-07-27 09:23:00,55.8,50.4,30.15,SW,214,0.0,0.0,82,0.00,,---,0.00,VWS V13.00,2013-07-27 17:23:00,
2013-07-27 09:28:00,55.8,50.7,30.15,WSW,251,0.0,0.0,83,0.00,,---,0.00,VWS V13.00,2013-07-27 17:28:00,
2013-07-27 09:33:00,55.8,50.7,30.15,West,260,0.0,0.0,83,0.00,,---,0.00,VWS V13.00,2013-07-27 17:33:00,
2013-07-27 09:38:00,55.8,50.7,30.15,WSW,241,0.0,0.0,83,0.00,,---,0.00,VWS V13.00,2013-07-27 17:38:00,
2013-07-27 09:43:00,55.9,50.9,30.15,SW,229,0.0,0.0,83,0.00,,---,0.00,VWS V13.00,2013-07-27 17:43:00,
2013-07-27 09:48:00,55.9,50.9,30.15,WSW,257,0.0,0.0,83,0.00,,---,0.00,VWS V13.00,2013-07-27 17:48:00,
2013-07-27 09:53:00,55.9,50.9,30.15,WSW,257,0.0,0.0,83,0.00,,---,0.00,VWS V13.00,2013-07-27 17:53:00,
2013-07-27 09:58:00,56.1,51.0,30.15,SW,234,0.0,0.0,83,0.00,,---,0.00,VWS V13.00,2013-07-27 17:58:00,
2013-07-27 10:03:00,56.1,51.0,30.15,WSW,237,0.0,0.0,83,0.00,,---,0.00,VWS V13.00,2013-07-27 18:03:00,
2013-07-27 10:08:00,56.1,51.0,30.15,WSW,245,0.0,0.0,83,0.00,,---,0.00,VWS V13.00,2013-07-27 18:08:00,
2013-07-27 10:13:00,56.3,51.5,30.15,SW,224,0.0,0.0,84,0.00,,---,0.00,VWS V13.00,2013-07-27 18:13:00,
2013-07-27 10:18:00,56.3,51.5,30.15,SSW,209,0.0,0.0,84,0.00,,---,0.00,VWS V13.00,2013-07-27 18:18:00,
2013-07-27 10:23:00,56.5,51.7,30.15,WSW,240,0.0,0.0,84,0.00,,---,0.00,VWS V13.00,2013-07-27 18:23:00,
2013-07-27 10:28:00,56.5,51.7,30.15,SW,230,0.0,0.0,84,0.00,,---,0.00,VWS V13.00,2013-07-27 18:28:00,
2013-07-27 10:33:00,56.5,51.7,30.15,SW,220,0.0,0.0,84,0.00,,---,0.00,VWS V13.00,2013-07-27 18:33:00,
2013-07-27 10:38:00,56.7,51.9,30.15,SW,233,0.0,0.0,84,0.00,,---,0.00,VWS V13.00,2013-07-27 18:38:00,
2013-07-27 10:43:00,56.8,52.1,30.15,SSW,208,0.0,0.0,84,0.00,,---,0.00,VWS V13.00,2013-07-27 18:43:00,
2013-07-27 10:48:00,56.8,52.1,30.15,WSW,243,0.0,0.0,84,0.00,,---,0.00,VWS V13.00,2013-07-27 18:48:00,
2013-07-27 10:53:00,56.8,52.1,30.15,SSW,207,0.0,0.0,84,0.00,,---,0.00,VWS V13.00,2013-07-27 18:53:00,
2013-07-27 10:58:00,57.0,52.2,30.15,SSW,211,0.0,0.0,84,0.00,,---,0.00,VWS V13.00,2013-07-27 18:58:00,
2013-07-27 11:03:00,57.0,52.2,30.15,SSW,202,0.0,0.0,84,0.00,,---,0.00,VWS V13.00,2013-07-27 19:03:00,
2013-07-27 11:08:00,57.0,52.2,30.15,SSW,208,0.0,0.0,84,0.00,,---,0.00,VWS V13.00,2013-07-27 19:08:00,
2013-07-27 11:13:00,57.2,52.4,30.15,SW,220,0.0,0.0,84,0.00,,---,0.00,VWS V13.00,2013-07-27 19:13:00,
2013-07-27 11:17:00,57.2,52.4,30.15,WSW,238,0.0,0.0,84,0.00,,---,0.00,VWS V13.00,2013-07-27 19:17:00,
2013-07-27 11:23:00,57.2,52.4,30.15,WSW,239,0.0,0.0,84,0.00,,---,0.00,VWS V13.00,2013-07-27 19:23:00,
2013-07-27 11:28:00,57.4,52.6,30.15,SW,231,0.0,0.0,84,0.00,,---,0.00,VWS V13.00,2013-07-27 19:28:00,
2013-07-27 11:33:00,57.6,52.8,30.15,WSW,252,0.0,0.0,84,0.00,,---,0.00,VWS V13.00,2013-07-27 19:33:00,
2013-07-27 11:38:00,57.7,53.0,30.15,SW,226,0.0,0.0,84,0.00,,---,0.00,VWS V13.00,2013-07-27 19:38:00,
2013-07-27 11:42:00,57.9,53.1,30.15,WSW,248,0.0,0.0,84,0.00,,---,0.00,VWS V13.00,2013-07-27 19:42:00,
2013-07-27 11:48:00,57.9,53.1,30.15,SW,229,0.0,0.0,84,0.00,,---,0.00,VWS V13.00,2013-07-27 19:48:00,
2013-07-27 11:52:00,57.9,53.1,30.15,SW,235,0.0,0.0,84,0.00,,---,0.00,VWS V13.00,2013-07-27 19:52:00,
2013-07-27 11:57:00,58.1,53.3,30.15,SW,235,0.0,0.0,84,0.00,,---,0.00,VWS V13.00,2013-07-27 19:57:00,
2013-07-27 12:02:00,58.1,53.3,30.15,SW,215,0.0,0.0,84,0.00,,---,0.00,VWS V13.00,2013-07-27 20:02:00,
2013-07-27 12:07:00,58.1,53.3,30.15,WSW,252,0.0,0.0,84,0.00,,---,0.00,VWS V13.00,2013-07-27 20:07:00,
2013-07-27 12:12:00,58.3,53.5,30.15,WSW,248,0.0,0.0,84,0.00,,---,0.00,VWS V13.00,2013-07-27 20:12:00,
2013-07-27 12:17:00,58.3,53.5,30.15,SW,214,0.0,0.0,84,0.00,,---,0.00,VWS V13.00,2013-07-27 20:17:00,
2013-07-27 12:22:00,58.5,53.7,30.15,WSW,252,0.0,0.0,84,0.00,,---,0.00,VWS V13.00,2013-07-27 20:22:00,
2013-07-27 12:27:00,58.5,53.7,30.15,SW,223,0.0,0.0,84,0.00,,---,0.00,VWS V13.00,2013-07-27 20:27:00,
2013-07-27 12:32:00,58.8,54.0,30.15,WSW,253,0.0,0.0,84,0.00,,---,0.00,VWS V13.00,2013-07-27 20:32:00,
2013-07-27 12:37:00,59.0,54.2,30.15,SSW,204,0.0,0.0,84,0.00,,---,0.00,VWS V13.00,2013-07-27 20:37:00,
2013-07-27 12:42:00,59.0,54.2,30.15,WSW,237,0.0,0.0,84,0.00,,---,0.00,VWS V13.00,2013-07-27 20:42:00,
2013-07-27 12:47:00,59.2,54.0,30.15,WSW,258,0.0,0.0,83,0.00,,---,0.00,VWS V13.00,2013-07-27 20:47:00,
2013-07-27 12:52:00,59.2,54.0,30.15,WSW,248,0.0,0.0,83,0.00,,---,0.00,VWS V13.00,2013-07-27 20:52:00,
2013-07-27 12:57:00,59.2,54.0,30.15,WSW,248,0.0,0.0,83,0.00,,---,0.00,VWS V13.00,2013-07-27 20:57:00,
2013-07-27 13:02:00,59.4,54.2,30.15,WSW,239,0.0,0.0,83,0.00,,---,0.00,VWS V13.00,2013-07-27 21:02:00,
2013-07-27 13:07:00,59.4,54.2,30.15,SW,223,0.0,0.0,83,0.00,,---,0.00,VWS V13.00,2013-07-27 21:07:00,
2013-07-27 13:12:00,59.4,54.2,30.15,WSW,249,0.0,0.0,83,0.00,,---,0.00,VWS V13.00,2013-07-27 21:12:00,
2013-07-27 13:17:00,59.4,54.2,30.15,SSW,213,0.0,0.0,83,0.00,,---,0.00,VWS V13.00,2013-07-27 21:17:00,
2013-07-27 13:22:00,59.5,54.4,30.15,WSW,253,0.0,0.0,83,0.00,,---,0.00,VWS V13.00,2013-07-27 21:22:00,
2013-07-27 13:27:00,59.7,54.6,30.15,SW,224,0.0,0.0,83,0.00,,---,0.00,VWS V13.00,2013-07-27 21:27:00,
2013-07-27 13:32:00,59.7,54.2,30.15,SW,224,0.0,0.0,82,0.00,,---,0.00,VWS V13.00,2013-07-27 21:32:00,
2013-07-27 13:37:00,59.7,54.2,30.15,WSW,248,0.0,0.0,82,0.00,,---,0.00,VWS V13.00,2013-07-27 21:37:00,
2013-07-27 13:42:00,59.7,54.2,30.15,SSW,208,0.0,0.0,82,0.00,,---,0.00,VWS V13.00,2013-07-27 21:42:00,
2013-07-27 13:47:00,59.7,54.2,30.15,SSW,196,0.0,0.0,82,0.00,,---,0.00,VWS V13.00,2013-07-27 21:47:00,
2013-07-27 13:52:00,59.7,54.2,30.15,SSW,201,0.0,0.0,82,0.00,,---,0.00,VWS V13.00,2013-07-27 21:52:00,
2013-07-27 13:57:00,59.7,53.9,30.15,SW,224,0.0,0.0,81,0.00,,---,0.00,VWS V13.00,2013-07-27 21:57:00,
2013-07-27 14:02:00,59.7,53.9,30.15,WSW,257,0.0,0.0,81,0.00,,---,0.00,VWS V13.00,2013-07-27 22:02:00,
2013-07-27 14:07:00,59.9,54.1,30.15,SW,225,0.0,0.0,81,0.00,,---,0.00,VWS V13.00,2013-07-27 22:07:00,
2013-07-27 14:12:00,59.7,53.9,30.15,NW,311,0.0,0.0,81,0.00,,---,0.00,VWS V13.00,2013-07-27 22:12:00,
2013-07-27 14:17:00,59.5,53.4,30.15,WSW,257,0.0,0.0,80,0.00,,---,0.00,VWS V13.00,2013-07-27 22:17:00,
2013-07-27 14:22:00,59.7,53.9,30.15,WSW,258,0.0,0.0,81,0.00,,---,0.00,VWS V13.00,2013-07-27 22:22:00,
2013-07-27 14:27:00,59.5,53.4,30.15,West,272,0.0,0.0,80,0.00,,---,0.00,VWS V13.00,2013-07-27 22:27:00,
2013-07-27 14:32:00,59.7,53.5,30.15,SSW,211,0.0,0.0,80,0.00,,---,0.00,VWS V13.00,2013-07-27 22:32:00,
2013-07-27 14:33:00,59.7,53.5,30.15,SSW,211,0.0,0.0,80,0.00,,---,0.00,VWS V13.00,2013-07-27 22:33:00,
2013-07-27 14:38:00,59.9,53.7,30.15,SW,217,0.0,0.0,80,0.00,,---,0.00,VWS V13.00,2013-07-27 22:38:00,
2013-07-27 14:43:00,60.1,53.9,30.15,SSW,197,0.0,0.0,80,0.00,,---,0.00,VWS V13.00,2013-07-27 22:43:00,
2013-07-27 14:48:00,60.1,53.9,30.15,SW,227,0.0,0.0,80,0.00,,---,0.00,VWS V13.00,2013-07-27 22:48:00,
2013-07-27 14:53:00,60.1,53.9,30.15,SW,220,0.0,0.0,80,0.00,,---,0.00,VWS V13.00,2013-07-27 22:53:00,
2013-07-27 14:57:00,60.1,53.9,30.15,SSW,208,0.0,0.0,80,0.00,,---,0.00,VWS V13.00,2013-07-27 22:57:00,
2013-07-27 15:02:00,60.1,53.6,30.15,WSW,251,0.0,0.0,79,0.00,,---,0.00,VWS V13.00,2013-07-27 23:02:00,
2013-07-27 15:07:00,60.1,53.6,30.15,SSW,200,0.0,0.0,79,0.00,,---,0.00,VWS V13.00,2013-07-27 23:07:00,
2013-07-27 15:12:00,60.3,53.7,30.15,WSW,253,0.0,0.0,79,0.00,,---,0.00,VWS V13.00,2013-07-27 23:12:00,
2013-07-27 15:18:00,60.3,53.7,30.15,WSW,250,0.0,0.0,79,0.00,,---,0.00,VWS V13.00,2013-07-27 23:18:00,
2013-07-27 15:22:00,60.6,54.1,30.15,WSW,250,0.0,0.0,79,0.00,,---,0.00,VWS V13.00,2013-07-27 23:22:00,
2013-07-27 15:27:00,60.6,54.1,30.15,SW,225,0.0,0.0,79,0.00,,---,0.00,VWS V13.00,2013-07-27 23:27:00,
2013-07-27 15:32:00,61.0,54.1,30.15,SSW,210,0.0,0.0,78,0.00,,---,0.00,VWS V13.00,2013-07-27 23:32:00,
2013-07-27 15:37:00,61.2,54.3,30.15,SW,236,0.0,0.0,78,0.00,,---,0.00,VWS V13.00,2013-07-27 23:37:00,
2013-07-27 15:42:00,61.3,54.1,30.15,SW,236,0.0,0.0,77,0.00,,---,0.00,VWS V13.00,2013-07-27 23:42:00,
2013-07-27 15:47:00,61.3,54.1,30.15,WSW,258,0.0,0.0,77,0.00,,---,0.00,VWS V13.00,2013-07-27 23:47:00,
2013-07-27 15:52:00,61.7,54.1,30.15,SW,226,0.0,0.0,76,0.00,,---,0.00,VWS V13.00,2013-07-27 23:52:00,
2013-07-27 15:57:00,61.7,54.1,30.15,SSW,202,0.0,0.0,76,0.00,,---,0.00,VWS V13.00,2013-07-27 23:57:00,
2013-07-27 16:02:00,61.9,53.9,30.15,WSW,251,0.0,0.0,75,0.00,,---,0.00,VWS V13.00,2013-07-28 00:02:00,
2013-07-27 16:07:00,62.1,53.3,30.15,WSW,256,0.0,0.0,73,0.00,,---,0.00,VWS V13.00,2013-07-28 00:07:00,
2013-07-27 16:12:00,61.9,53.1,30.15,SSW,193,0.0,0.0,73,0.00,,---,0.00,VWS V13.00,2013-07-28 00:12:00,
2013-07-27 16:17:00,61.9,52.8,30.15,SW,229,0.0,0.0,72,0.00,,---,0.00,VWS V13.00,2013-07-28 00:17:00,
2013-07-27 16:22:00,61.9,52.8,30.15,SW,236,0.0,0.0,72,0.00,,---,0.00,VWS V13.00,2013-07-28 00:22:00,
2013-07-27 16:27:00,62.1,52.6,30.15,West,271,0.0,0.0,71,0.00,,---,0.00,VWS V13.00,2013-07-28 00:27:00,
2013-07-27 16:32:00,62.1,52.6,30.15,SW,215,0.0,0.0,71,0.00,,---,0.00,VWS V13.00,2013-07-28 00:32:00,
2013-07-27 16:37:00,62.2,52.3,30.15,SW,220,0.0,0.0,70,0.00,,---,0.00,VWS V13.00,2013-07-28 00:37:00,
2013-07-27 16:42:00,62.2,52.3,30.15,WSW,244,2.7,2.7,70,0.00,,---,0.00,VWS V13.00,2013-07-28 00:42:00,
2013-07-27 16:47:00,62.2,52.3,30.15,West,259,0.0,2.7,70,0.00,,---,0.00,VWS V13.00,2013-07-28 00:47:00,
2013-07-27 16:52:00,62.4,52.5,30.15,WSW,258,0.0,2.7,70,0.00,,---,0.00,VWS V13.00,2013-07-28 00:52:00,
2013-07-27 16:57:00,62.6,51.9,30.15,West,275,0.0,3.1,68,0.00,,---,0.00,VWS V13.00,2013-07-28 00:57:00,
2013-07-27 17:02:00,62.6,51.9,30.15,WSW,256,0.0,0.0,68,0.00,,---,0.00,VWS V13.00,2013-07-28 01:02:00,
2013-07-27 17:07:00,62.8,51.7,30.15,West,273,0.0,0.0,67,0.00,,---,0.00,VWS V13.00,2013-07-28 01:07:00,
2013-07-27 17:12:00,62.8,51.7,30.15,West,260,0.0,0.0,67,0.00,,---,0.00,VWS V13.00,2013-07-28 01:12:00,
2013-07-27 17:17:00,63.1,51.6,30.15,WSW,243,0.0,0.0,66,0.00,,---,0.00,VWS V13.00,2013-07-28 01:17:00,
2013-07-27 17:22:00,63.1,51.6,30.15,SSW,200,0.0,0.0,66,0.00,,---,0.00,VWS V13.00,2013-07-28 01:22:00,
2013-07-27 17:27:00,63.1,51.6,30.15,West,272,0.0,0.0,66,0.00,,---,0.00,VWS V13.00,2013-07-28 01:27:00,
2013-07-27 17:32:00,63.0,51.0,30.15,West,269,0.0,0.0,65,0.00,,---,0.00,VWS V13.00,2013-07-28 01:32:00,
2013-07-27 17:37:00,63.0,51.0,30.15,West,263,0.0,0.0,65,0.00,,---,0.00,VWS V13.00,2013-07-28 01:37:00,
2013-07-27 17:42:00,63.1,51.2,30.15,West,263,0.0,0.0,65,0.00,,---,0.00,VWS V13.00,2013-07-28 01:42:00,
2013-07-27 17:47:00,63.1,51.2,30.15,WSW,258,0.0,0.0,65,0.00,,---,0.00,VWS V13.00,2013-07-28 01:47:00,
2013-07-27 17:52:00,63.0,51.0,30.15,WSW,258,0.0,0.0,65,0.00,,---,0.00,VWS V13.00,2013-07-28 01:52:00,
2013-07-27 17:57:00,63.0,51.0,30.15,South,189,0.0,0.0,65,0.00,,---,0.00,VWS V13.00,2013-07-28 01:57:00,
2013-07-27 18:02:00,62.8,50.8,30.15,SSW,198,0.0,0.0,65,0.00,,---,0.00,VWS V13.00,2013-07-28 02:02:00,
2013-07-27 18:07:00,62.8,50.8,30.15,SSW,205,0.0,0.0,65,0.00,,---,0.00,VWS V13.00,2013-07-28 02:07:00,
2013-07-27 18:12:00,62.6,50.3,30.15,SSW,193,0.0,0.0,64,0.00,,---,0.00,VWS V13.00,2013-07-28 02:12:00,
2013-07-27 18:17:00,62.6,50.3,30.15,South,169,0.0,0.0,64,0.00,,---,0.00,VWS V13.00,2013-07-28 02:17:00,
2013-07-27 18:22:00,62.4,50.5,30.15,SSW,213,0.0,0.0,65,0.00,,---,0.00,VWS V13.00,2013-07-28 02:22:00,
2013-07-27 18:27:00,62.6,50.7,30.15,South,176,0.0,0.0,65,0.00,,---,0.00,VWS V13.00,2013-07-28 02:27:00,
2013-07-27 18:32:00,62.8,50.8,30.15,SW,225,0.0,0.0,65,0.00,,---,0.00,VWS V13.00,2013-07-28 02:32:00,
2013-07-27 18:37:00,63.0,51.0,30.15,South,172,0.0,0.0,65,0.00,,---,0.00,VWS V13.00,2013-07-28 02:37:00,
2013-07-27 18:42:00,63.0,51.0,30.15,SSW,202,0.0,0.0,65,0.00,,---,0.00,VWS V13.00,2013-07-28 02:42:00,
2013-07-27 18:47:00,62.8,50.8,30.15,ESE,122,0.0,0.0,65,0.00,,---,0.00,VWS V13.00,2013-07-28 02:47:00,
2013-07-27 18:52:00,62.8,50.4,30.15,South,176,0.0,0.0,64,0.00,,---,0.00,VWS V13.00,2013-07-28 02:52:00,
2013-07-27 18:57:00,62.8,50.4,30.15,SE,145,0.0,0.0,64,0.00,,---,0.00,VWS V13.00,2013-07-28 02:57:00,
2013-07-27 19:02:00,62.6,50.3,30.15,SSE,164,0.0,0.0,64,0.00,,---,0.00,VWS V13.00,2013-07-28 03:02:00,
2013-07-27 19:07:00,62.6,50.3,30.12,SE,131,0.0,0.0,64,0.00,,---,0.00,VWS V13.00,2013-07-28 03:07:00,
2013-07-27 19:12:00,62.6,50.3,30.12,East,101,0.0,0.0,64,0.00,,---,0.00,VWS V13.00,2013-07-28 03:12:00,
2013-07-27 19:17:00,61.9,49.2,30.12,ENE,63,0.0,0.0,63,0.00,,---,0.00,VWS V13.00,2013-07-28 03:17:00,
2013-07-27 19:22:00,61.7,49.0,30.12,ESE,115,0.0,0.0,63,0.00,,---,0.00,VWS V13.00,2013-07-28 03:22:00,
2013-07-27 19:27:00,61.7,49.4,30.12,SSE,163,0.0,0.0,64,0.00,,---,0.00,VWS V13.00,2013-07-28 03:27:00,
2013-07-27 19:32:00,62.1,50.2,30.12,SSW,198,0.0,0.0,65,0.00,,---,0.00,VWS V13.00,2013-07-28 03:32:00,
2013-07-27 19:37:00,62.2,50.3,30.12,SE,144,0.0,0.0,65,0.00,,---,0.00,VWS V13.00,2013-07-28 03:37:00,
2013-07-27 19:42:00,62.2,50.3,30.12,South,169,0.0,0.0,65,0.00,,---,0.00,VWS V13.00,2013-07-28 03:42:00,
2013-07-27 19:47:00,62.2,50.3,30.12,SSE,154,0.0,0.0,65,0.00,,---,0.00,VWS V13.00,2013-07-28 03:47:00,
2013-07-27 19:52:00,62.2,50.3,30.12,SSE,152,0.0,0.0,65,0.00,,---,0.00,VWS V13.00,2013-07-28 03:52:00,
2013-07-27 19:57:00,62.1,50.2,30.12,SSW,212,0.0,0.0,65,0.00,,---,0.00,VWS V13.00,2013-07-28 03:57:00,
2013-07-27 20:01:00,62.2,50.3,30.12,South,183,0.0,0.0,65,0.00,,---,0.00,VWS V13.00,2013-07-28 04:01:00,
2013-07-27 20:02:00,62.2,50.3,30.12,SSW,213,0.0,0.0,65,0.00,,---,0.00,VWS V13.00,2013-07-28 04:02:00,
2013-07-27 20:07:00,62.2,50.3,30.12,SSW,209,0.0,0.0,65,0.00,,---,0.00,VWS V13.00,2013-07-28 04:07:00,
2013-07-27 20:12:00,62.2,50.3,30.12,SW,219,0.0,0.0,65,0.00,,---,0.00,VWS V13.00,2013-07-28 04:12:00,
2013-07-27 20:17:00,62.2,50.3,30.12,SSW,213,0.0,0.0,65,0.00,,---,0.00,VWS V13.00,2013-07-28 04:17:00,
2013-07-27 20:22:00,62.2,50.3,30.12,SE,125,0.0,0.0,65,0.00,,---,0.00,VWS V13.00,2013-07-28 04:22:00,
2013-07-27 20:27:00,62.2,50.3,30.12,SE,145,0.0,0.0,65,0.00,,---,0.00,VWS V13.00,2013-07-28 04:27:00,
2013-07-27 20:32:00,62.2,50.3,30.12,SSE,158,0.0,0.0,65,0.00,,---,0.00,VWS V13.00,2013-07-28 04:32:00,
2013-07-27 20:37:00,62.1,50.2,30.12,SW,220,0.0,0.0,65,0.00,,---,0.00,VWS V13.00,2013-07-28 04:37:00,
2013-07-27 20:42:00,62.2,50.3,30.12,SSW,206,0.0,0.0,65,0.00,,---,0.00,VWS V13.00,2013-07-28 04:42:00,
2013-07-27 20:47:00,62.2,50.3,30.12,SSW,210,0.0,0.0,65,0.00,,---,0.00,VWS V13.00,2013-07-28 04:47:00,
2013-07-27 20:52:00,62.2,50.3,30.12,SW,236,0.0,0.0,65,0.00,,---,0.00,VWS V13.00,2013-07-28 04:52:00,
2013-07-27 20:57:00,62.1,50.6,30.12,West,261,0.0,0.0,66,0.00,,---,0.00,VWS V13.00,2013-07-28 04:57:00,
2013-07-27 21:02:00,62.2,50.8,30.12,WSW,245,0.0,0.0,66,0.00,,---,0.00,VWS V13.00,2013-07-28 05:02:00,
2013-07-27 21:07:00,62.2,50.8,30.12,SSW,211,0.0,0.0,66,0.00,,---,0.00,VWS V13.00,2013-07-28 05:07:00,
2013-07-27 21:12:00,62.1,50.6,30.12,WSW,256,0.0,0.0,66,0.00,,---,0.00,VWS V13.00,2013-07-28 05:12:00,
2013-07-27 21:17:00,61.9,50.4,30.12,WSW,256,0.0,0.0,66,0.00,,---,0.00,VWS V13.00,2013-07-28 05:17:00,
2013-07-27 21:22:00,61.9,50.4,30.12,WSW,256,0.0,0.0,66,0.00,,---,0.00,VWS V13.00,2013-07-28 05:22:00,
2013-07-27 21:27:00,61.7,50.2,30.12,WSW,256,0.0,0.0,66,0.00,,---,0.00,VWS V13.00,2013-07-28 05:27:00,
2013-07-27 21:32:00,61.7,50.2,30.12,WSW,256,0.0,0.0,66,0.00,,---,0.00,VWS V13.00,2013-07-28 05:32:00,
2013-07-27 21:37:00,61.7,50.2,30.12,WSW,256,0.0,0.0,66,0.00,,---,0.00,VWS V13.00,2013-07-28 05:37:00,
2013-07-27 21:42:00,61.2,49.7,30.12,North,353,0.0,0.0,66,0.00,,---,0.00,VWS V13.00,2013-07-28 05:42:00,
2013-07-27 21:47:00,61.0,50.0,30.12,North,353,0.0,0.0,67,0.00,,---,0.00,VWS V13.00,2013-07-28 05:47:00,
2013-07-27 21:52:00,61.0,50.0,30.12,North,353,0.0,0.0,67,0.00,,---,0.00,VWS V13.00,2013-07-28 05:52:00,
2013-07-27 21:57:00,60.8,49.8,30.12,North,353,0.0,0.0,67,0.00,,---,0.00,VWS V13.00,2013-07-28 05:57:00,
2013-07-27 22:02:00,60.8,49.8,30.12,North,353,0.0,0.0,67,0.00,,---,0.00,VWS V13.00,2013-07-28 06:02:00,
2013-07-27 22:07:00,60.6,50.0,30.12,North,353,0.0,0.0,68,0.00,,---,0.00,VWS V13.00,2013-07-28 06:07:00,
2013-07-27 22:12:00,60.6,50.0,30.12,North,353,0.0,0.0,68,0.00,,---,0.00,VWS V13.00,2013-07-28 06:12:00,
2013-07-27 22:17:00,60.3,49.7,30.12,North,353,0.0,0.0,68,0.00,,---,0.00,VWS V13.00,2013-07-28 06:17:00,
2013-07-27 22:22:00,60.1,49.5,30.09,North,353,0.0,0.0,68,0.00,,---,0.00,VWS V13.00,2013-07-28 06:22:00,
2013-07-27 22:27:00,59.9,49.3,30.09,North,353,0.0,0.0,68,0.00,,---,0.00,VWS V13.00,2013-07-28 06:27:00,
2013-07-27 22:32:00,59.9,49.3,30.09,North,353,0.0,0.0,68,0.00,,---,0.00,VWS V13.00,2013-07-28 06:32:00,
2013-07-27 22:37:00,59.4,49.2,30.12,North,353,0.0,0.0,69,0.00,,---,0.00,VWS V13.00,2013-07-28 06:37:00,
2013-07-27 22:42:00,58.8,48.7,30.12,North,353,0.0,0.0,69,0.00,,---,0.00,VWS V13.00,2013-07-28 06:42:00,
2013-07-27 22:47:00,58.6,48.5,30.12,North,353,0.0,0.0,69,0.00,,---,0.00,VWS V13.00,2013-07-28 06:47:00,
2013-07-27 22:52:00,58.5,48.3,30.12,North,353,0.0,0.0,69,0.00,,---,0.00,VWS V13.00,2013-07-28 06:52:00,
2013-07-27 22:57:00,58.1,48.4,30.12,North,353,0.0,0.0,70,0.00,,---,0.00,VWS V13.00,2013-07-28 06:57:00,
2013-07-27 23:02:00,58.1,48.4,30.12,North,353,0.0,0.0,70,0.00,,---,0.00,VWS V13.00,2013-07-28 07:02:00,
2013-07-27 23:07:00,57.7,48.0,30.12,North,353,0.0,0.0,70,0.00,,---,0.00,VWS V13.00,2013-07-28 07:07:00,
2013-07-27 23:12:00,57.6,47.9,30.12,North,353,0.0,0.0,70,0.00,,---,0.00,VWS V13.00,2013-07-28 07:12:00,
2013-07-27 23:17:00,57.4,47.7,30.12,North,353,0.0,0.0,70,0.00,,---,0.00,VWS V13.00,2013-07-28 07:17:00,
2013-07-27 23:22:00,57.2,47.9,30.12,North,353,0.0,0.0,71,0.00,,---,0.00,VWS V13.00,2013-07-28 07:22:00,
2013-07-27 23:27:00,57.2,47.9,30.12,North,353,0.0,0.0,71,0.00,,---,0.00,VWS V13.00,2013-07-28 07:27:00,
2013-07-27 23:32:00,56.8,47.5,30.12,North,353,0.0,0.0,71,0.00,,---,0.00,VWS V13.00,2013-07-28 07:32:00,
2013-07-27 23:37:00,56.8,47.5,30.12,North,353,0.0,0.0,71,0.00,,---,0.00,VWS V13.00,2013-07-28 07:37:00,
2013-07-27 23:42:00,56.7,47.8,30.12,North,353,0.0,0.0,72,0.00,,---,0.00,VWS V13.00,2013-07-28 07:42:00,
2013-07-27 23:47:00,56.5,47.6,30.12,North,353,0.0,0.0,72,0.00,,---,0.00,VWS V13.00,2013-07-28 07:47:00,
2013-07-27 23:52:00,56.3,47.4,30.12,North,353,0.0,0.0,72,0.00,,---,0.00,VWS V13.00,2013-07-28 07:52:00,
2013-07-27 23:57:00,56.3,47.4,30.12,North,353,0.0,0.0,72,0.00,,---,0.00,VWS V13.00,2013-07-28 07:57:00,